Find Yaogan Weixing 21

NORAD ID: 40143 Int'l Des: 2014-053 Owner: ZZB Country: CN Constellation: yaogan operational
LEOCIRCULARRETROGRADESSO

Aktuelle Ansicht

3D-Globus wird geladen...

Über Yaogan Weixing 21

Beschreibung wird geladen...

Nächste Überflüge

Passes for default location (London). Set your location on the main map for personalized predictions.

Höhenverlauf

Loading altitude history...

Zweizeiliger Elementsatz

1 40143U 14053A 26151.50972174 .00015112 00000-0 58707-3 0 9995
2 40143 97.1482 192.4640 0009296 142.1139 218.0756 15.26115094652419
Epoch: 31. Mai 2026 • Age: 11 hours

Aktueller Status

Höhe 493.7 km
Geschwindigkeit 7.62 km/s
Subsatellitenpunkt 12.06°N, 47.61°W
Startdatum 8. Sept. 2014
Alter 11.7 years
Typ military

Technische Details

Klassifizierung Payload
Masse 3000.00 kg
Trockenmasse 3000.00 kg
Gesamtmasse 3000.00 kg
Länge 2.00 m
Durchmesser 2.00 m
Spannweite 8.00 m
Form Box + 2 Pan
Hersteller CAST
Bus-Typ JB-10
Phasenstatus In Orbit
Besitzer/Staat ZZB/CN

Most Searched